This demonstration page uses our WeatherBlox Daily Observations layout. Learn more.

Left ArrowRight Arrow

Hourly Observations for June 19, 2017

Temp ( °F °C ) Dew Point ( °F °C ) Humidity (%) Winds ( mph kmh ) Pressure ( in mb ) Visibility ( mi km ) Precip ( " mm )
1:07 am 01:07 Clear 64 18 61 16 88 88 SW 3 6 29.83 1010 10 16 N/A
1:26 am 01:26 Clear 64 18 61 16 88 88 SSW 3 6 29.83 1010 10 16 N/A
1:47 am 01:47 Clear 64 18 61 16 88 88 N N/A 29.83 1010 10 16 N/A
2:06 am 02:06 Clear 64 18 59 15 83 83 SW 5 7 29.83 1010 10 16 N/A
2:27 am 02:27 Clear 64 18 59 15 83 83 N N/A 29.83 1010 10 16 N/A
2:47 am 02:47 Clear 63 17 59 15 88 88 WSW 3 6 29.83 1010 10 16 N/A
3:06 am 03:06 Clear 63 17 59 15 88 88 WSW 5 7 29.83 1010 10 16 N/A
3:27 am 03:27 Clear 61 16 57 14 88 88 W 5 7 29.83 1010 10 16 N/A
3:47 am 03:47 Clear 61 16 57 14 88 88 WSW 5 7 29.83 1010 10 16 N/A
4:06 am 04:06 Clear 61 16 57 14 88 88 WSW 5 7 29.83 1010 10 16 N/A
4:27 am 04:27 Clear 61 16 57 14 88 88 W 5 7 29.83 1010 10 16 N/A
4:46 am 04:46 Clear 61 16 57 14 88 88 WSW 3 6 29.83 1010 10 16 N/A
5:07 am 05:07 Clear 61 16 59 15 94 94 WSW 3 6 29.83 1010 10 16 N/A
5:27 am 05:27 Clear 61 16 57 14 88 88 WSW 3 6 29.83 1010 10 16 N/A
5:46 am 05:46 Clear 59 15 57 14 94 94 WSW 3 6 29.85 1011 10 16 N/A
6:07 am 06:07 Clear 61 16 59 15 94 94 N N/A 29.85 1011 10 16 N/A
6:27 am 06:27 Sunny 61 16 59 15 94 94 N N/A 29.85 1011 10 16 N/A
6:47 am 06:47 Sunny 59 15 57 14 94 94 WSW 3 6 29.85 1011 10 16 N/A
7:07 am 07:07 Sunny 59 15 57 14 94 94 N N/A 29.85 1011 10 16 N/A
7:26 am 07:26 Sunny 63 17 59 15 88 88 W 3 6 29.88 1012 10 16 N/A
7:47 am 07:47 Sunny 64 18 61 16 88 88 WSW 3 6 29.88 1012 10 16 N/A
8:07 am 08:07 Sunny 66 19 61 16 83 83 WSW 3 6 29.88 1012 10 16 N/A
8:26 am 08:26 Sunny 68 20 61 16 78 78 WSW 3 6 29.85 1011 10 16 N/A
8:47 am 08:47 Sunny 68 20 61 16 78 78 SW 6 9 29.85 1011 10 16 N/A
9:06 am 09:06 Sunny 70 21 61 16 73 73 WSW 7 11 29.88 1012 10 16 N/A
9:27 am 09:27 Sunny 70 21 61 16 73 73 WSW 7 11 29.88 1012 10 16 N/A
9:47 am 09:47 Sunny 72 22 61 16 69 69 WSW 8 13 29.88 1012 10 16 N/A
10:06 am 10:06 Sunny 72 22 61 16 69 69 SW 7 11 29.85 1011 10 16 N/A
10:27 am 10:27 Partly Cloudy 72 22 59 15 65 65 SW 7 11 29.85 1011 10 16 N/A
10:46 am 10:46 Partly Cloudy 73 23 61 16 65 65 SW 6 9 29.85 1011 10 16 N/A
11:07 am 11:07 Mostly Cloudy 75 24 61 16 61 61 W 9 15 29.85 1011 10 16 N/A
11:26 am 11:26 Partly Cloudy 75 24 61 16 61 61 WSW 8 13 29.85 1011 10 16 N/A
11:47 am 11:47 Partly Cloudy 77 25 59 15 54 54 WSW 12 19 29.88 1012 10 16 N/A
12:06 pm 12:06 Mostly Cloudy 73 23 59 15 61 61 WSW 9 15 29.88 1012 10 16 N/A
12:27 pm 12:27 Mostly Cloudy 75 24 59 15 57 57 W 12 19 29.88 1012 10 16 N/A
12:47 pm 12:47 Mostly Cloudy 75 24 57 14 54 54 W 14 22 29.88 1012 10 16 N/A
1:06 pm 13:06 Mostly Cloudy 77 25 59 15 54 54 W 15 24 29.88 1012 10 16 N/A
1:27 pm 13:27 Partly Cloudy 77 25 59 15 54 54 W 14 22 29.88 1012 10 16 N/A
1:47 pm 13:47 Sunny 79 26 57 14 48 48 W 16 26 29.85 1011 10 16 N/A
2:06 pm 14:06 Partly Cloudy 79 26 57 14 48 48 W 18 30 29.85 1011 10 16 N/A
2:27 pm 14:27 Partly Cloudy 79 26 57 14 48 48 W 16 26 29.85 1011 10 16 N/A
2:46 pm 14:46 Partly Cloudy 73 23 55 13 53 53 WSW 20 31 29.85 1011 10 16 N/A
3:07 pm 15:07 Partly Cloudy 75 24 55 13 50 50 SW 10 17 29.85 1011 10 16 N/A
3:27 pm 15:27 Partly Cloudy 75 24 57 14 54 54 WSW 13 20 29.85 1011 10 16 N/A
3:46 pm 15:46 Partly Cloudy 79 26 61 16 54 54 WSW 18 30 29.85 1011 10 16 N/A
4:07 pm 16:07 Partly Cloudy 79 26 54 12 42 42 W 22 35 29.85 1011 10 16 N/A
4:26 pm 16:26 Partly Cloudy 79 26 54 12 42 42 W 24 39 29.85 1011 10 16 N/A
4:47 pm 16:47 Partly Cloudy 79 26 52 11 39 39 W 25 41 29.85 1011 10 16 N/A
5:07 pm 17:07 Partly Cloudy 79 26 54 12 42 42 W 18 30 29.85 1011 10 16 N/A
5:26 pm 17:26 Partly Cloudy 79 26 52 11 39 39 W 24 39 29.85 1011 10 16 N/A
5:47 pm 17:47 Sunny 79 26 52 11 39 39 WNW 24 39 29.85 1011 10 16 N/A
6:06 pm 18:06 Partly Cloudy 77 25 52 11 42 42 WNW 21 33 29.85 1011 10 16 N/A
6:27 pm 18:27 Partly Cloudy 79 26 54 12 42 42 W 17 28 29.85 1011 10 16 N/A
6:47 pm 18:47 Partly Cloudy 79 26 52 11 39 39 W 18 30 29.85 1011 10 16 N/A
7:07 pm 19:07 Partly Cloudy 79 26 52 11 39 39 WNW 23 37 29.85 1011 10 16 N/A
7:27 pm 19:27 Partly Cloudy 77 25 48 9 36 36 WNW 21 33 29.85 1011 10 16 N/A
7:46 pm 19:46 Partly Cloudy 77 25 50 10 39 39 W 18 30 29.88 1012 10 16 N/A
8:07 pm 20:07 Sunny 77 25 46 8 34 34 WNW 21 33 29.88 1012 10 16 N/A
8:27 pm 20:27 Sunny 75 24 48 9 39 39 WNW 20 31 29.88 1012 10 16 N/A
8:46 pm 20:46 Sunny 75 24 46 8 36 36 WNW 17 28 29.88 1012 10 16 N/A
9:07 pm 21:07 Sunny 73 23 48 9 41 41 WNW 14 22 29.91 1013 10 16 N/A
9:26 pm 21:26 Clear 72 22 48 9 44 44 WNW 10 17 29.91 1013 10 16 N/A
9:47 pm 21:47 Clear 70 21 50 10 50 50 W 8 13 29.91 1013 10 16 N/A
10:07 pm 22:07 Clear 66 19 50 10 56 56 W 7 11 29.94 1014 10 16 N/A
10:27 pm 22:27 Clear 66 19 54 12 64 64 WSW 5 7 29.97 1015 10 16 N/A
10:47 pm 22:47 Clear 66 19 52 11 60 60 W 8 13 29.97 1015 10 16 N/A
11:06 pm 23:06 Clear 66 19 52 11 60 60 W 8 13 29.97 1015 10 16 N/A
11:27 pm 23:27 Partly Cloudy 66 19 52 11 60 60 NW 8 13 30.00 1016 10 16 N/A
11:46 pm 23:46 Mostly Cloudy 68 20 52 11 56 56 NW 7 11 30.00 1016 10 16 N/A

Powered by AerisWeather